Time,TemperatureF,DewpointF,PressureIn,WindDirection,WindDirectionDegrees,WindSpeedMPH,WindSpeedGustMPH,Humidity,HourlyPrecipIn,Conditions,Clouds,dailyrainin,SoftwareType,DateUTC
2013-08-08 00:00:00,72.7,71.5,30.07,ENE,61,0.0,0.0,96,0.00,,,0.64,VWS V14.01,2013-08-08 04:00:00,
2013-08-08 00:13:00,72.5,71.3,30.07,ENE,61,0.0,0.0,96,0.00,,,0.00,VWS V14.01,2013-08-08 04:13:00,
2013-08-08 00:28:00,72.4,71.2,30.07,ENE,61,0.0,0.0,96,0.00,,,0.00,VWS V14.01,2013-08-08 04:28:00,
2013-08-08 00:43:00,72.3,71.1,30.07,ENE,61,0.0,0.0,96,0.00,,,0.00,VWS V14.01,2013-08-08 04:43:00,
2013-08-08 00:58:00,72.5,71.3,30.07,ENE,61,0.0,0.0,96,0.00,,,0.00,VWS V14.01,2013-08-08 04:58:00,
2013-08-08 01:13:00,72.5,71.3,30.07,ENE,61,0.0,0.0,96,0.00,,,0.00,VWS V14.01,2013-08-08 05:13:00,
2013-08-08 01:28:00,72.4,71.2,30.07,ENE,61,0.0,0.0,96,0.00,,,0.00,VWS V14.01,2013-08-08 05:28:00,
2013-08-08 01:43:00,72.4,71.2,30.06,ENE,61,0.0,1.3,96,0.00,,,0.00,VWS V14.01,2013-08-08 05:43:00,
2013-08-08 01:58:00,72.4,71.2,30.06,ENE,61,0.0,0.0,96,0.00,,,0.00,VWS V14.01,2013-08-08 05:58:00,
2013-08-08 02:13:00,72.3,71.1,30.06,ENE,61,0.0,0.0,96,0.00,,,0.00,VWS V14.01,2013-08-08 06:13:00,
2013-08-08 02:28:00,72.3,71.1,30.06,ENE,61,0.0,0.0,96,0.00,,,0.00,VWS V14.01,2013-08-08 06:28:00,
2013-08-08 02:43:00,72.4,71.2,30.06,ENE,61,0.0,0.0,96,0.00,,,0.00,VWS V14.01,2013-08-08 06:43:00,
2013-08-08 02:58:00,72.2,71.0,30.06,ENE,61,0.0,0.0,96,0.00,,,0.00,VWS V14.01,2013-08-08 06:58:00,
2013-08-08 03:13:00,72.3,71.1,30.06,ENE,61,0.0,0.0,96,0.00,,,0.00,VWS V14.01,2013-08-08 07:13:00,
2013-08-08 03:28:00,72.1,70.9,30.05,ENE,61,0.0,0.0,96,0.00,,,0.00,VWS V14.01,2013-08-08 07:28:00,
2013-08-08 03:43:00,72.0,70.8,30.05,ENE,61,0.0,0.0,96,0.00,,,0.00,VWS V14.01,2013-08-08 07:43:00,
2013-08-08 03:58:00,71.9,71.0,30.05,ENE,61,0.0,0.0,97,0.00,,,0.00,VWS V14.01,2013-08-08 07:58:00,
2013-08-08 04:13:00,71.9,70.7,30.05,ENE,61,0.0,0.0,96,0.00,,,0.00,VWS V14.01,2013-08-08 08:13:00,
2013-08-08 04:28:00,71.8,70.6,30.05,ENE,61,0.0,0.0,96,0.00,,,0.00,VWS V14.01,2013-08-08 08:28:00,
2013-08-08 04:43:00,71.6,70.4,30.05,ENE,61,0.0,0.0,96,0.00,,,0.00,VWS V14.01,2013-08-08 08:43:00,
2013-08-08 04:58:00,71.5,70.3,30.05,ENE,61,0.0,0.0,96,0.00,,,0.00,VWS V14.01,2013-08-08 08:58:00,
2013-08-08 05:13:00,71.4,70.2,30.05,ENE,61,0.0,0.0,96,0.00,,,0.00,VWS V14.01,2013-08-08 09:13:00,
2013-08-08 05:28:00,71.2,70.0,30.05,ENE,61,0.0,0.0,96,0.00,,,0.00,VWS V14.01,2013-08-08 09:28:00,
2013-08-08 05:43:00,71.1,69.9,30.06,ENE,61,0.0,0.0,96,0.00,,,0.00,VWS V14.01,2013-08-08 09:43:00,
2013-08-08 05:58:00,71.1,69.9,30.06,ENE,61,0.0,0.0,96,0.00,,,0.00,VWS V14.01,2013-08-08 09:58:00,
2013-08-08 06:13:00,71.3,70.4,30.06,ENE,61,0.0,0.0,97,0.00,,,0.00,VWS V14.01,2013-08-08 10:13:00,
2013-08-08 06:28:00,71.4,70.5,30.06,ENE,61,0.0,0.0,97,0.00,,,0.00,VWS V14.01,2013-08-08 10:28:00,
2013-08-08 06:43:00,71.4,70.5,30.06,ENE,61,0.0,0.0,97,0.00,,,0.00,VWS V14.01,2013-08-08 10:43:00,
2013-08-08 06:58:00,71.4,70.5,30.06,ENE,61,0.0,0.0,97,0.00,,,0.00,VWS V14.01,2013-08-08 10:58:00,
2013-08-08 07:13:00,71.5,70.6,30.06,ENE,61,0.0,0.0,97,0.00,,,0.00,VWS V14.01,2013-08-08 11:13:00,
2013-08-08 07:28:00,71.8,70.9,30.06,ENE,61,0.0,0.0,97,0.00,,,0.00,VWS V14.01,2013-08-08 11:28:00,
2013-08-08 07:43:00,71.9,71.0,30.07,ENE,61,0.0,0.0,97,0.00,,,0.00,VWS V14.01,2013-08-08 11:43:00,
2013-08-08 07:58:00,72.4,71.5,30.07,ENE,61,0.0,0.0,97,0.00,,,0.00,VWS V14.01,2013-08-08 11:58:00,
2013-08-08 08:13:00,72.6,71.7,30.08,ENE,61,0.0,0.0,97,0.00,,,0.00,VWS V14.01,2013-08-08 12:13:00,
2013-08-08 08:28:00,72.6,71.7,30.08,ENE,61,0.0,0.0,97,0.00,,,0.00,VWS V14.01,2013-08-08 12:28:00,
2013-08-08 08:43:00,73.0,72.1,30.08,ENE,61,0.0,0.0,97,0.00,,,0.00,VWS V14.01,2013-08-08 12:43:00,
2013-08-08 08:58:00,73.1,71.9,30.08,ENE,62,0.0,0.0,96,0.00,,,0.00,VWS V14.01,2013-08-08 12:58:00,
2013-08-08 09:13:00,73.8,72.6,30.08,SSE,163,1.3,2.6,96,0.00,,,0.00,VWS V14.01,2013-08-08 13:13:00,
2013-08-08 09:28:00,74.2,72.7,30.08,SSE,162,0.0,2.6,95,0.00,,,0.00,VWS V14.01,2013-08-08 13:28:00,
2013-08-08 09:43:00,74.6,72.8,30.08,SW,221,1.3,6.5,94,0.00,,,0.00,VWS V14.01,2013-08-08 13:43:00,
2013-08-08 09:58:00,75.1,72.9,30.08,WSW,253,1.3,2.6,93,0.00,,,0.00,VWS V14.01,2013-08-08 13:58:00,
2013-08-08 10:13:00,76.6,73.1,30.08,WSW,244,1.3,6.5,89,0.00,,BKN080,0.00,VWS V14.01,2013-08-08 14:13:00,
2013-08-08 10:28:00,77.4,73.6,30.09,SSW,193,2.6,5.2,88,0.00,,BKN080,0.00,VWS V14.01,2013-08-08 14:28:00,
2013-08-08 10:43:00,78.6,73.7,30.09,WSW,246,5.2,9.1,85,0.00,,BKN080,0.00,VWS V14.01,2013-08-08 14:43:00,
2013-08-08 10:58:00,78.9,73.3,30.09,South,174,1.3,10.4,83,0.00,,BKN080,0.00,VWS V14.01,2013-08-08 14:58:00,
2013-08-08 11:13:00,79.6,72.5,30.09,West,280,3.9,11.7,79,0.00,,BKN041,0.00,VWS V14.01,2013-08-08 15:13:00,
2013-08-08 11:28:00,80.1,73.4,30.09,WSW,250,2.6,13.0,80,0.00,,BKN041,0.00,VWS V14.01,2013-08-08 15:28:00,
2013-08-08 11:43:00,79.8,72.7,30.09,SW,235,6.5,6.5,79,0.00,,BKN041,0.00,VWS V14.01,2013-08-08 15:43:00,
2013-08-08 11:58:00,79.1,73.1,30.10,WSW,238,3.9,10.4,82,0.00,,BKN030,0.00,VWS V14.01,2013-08-08 15:58:00,
2013-08-08 12:13:00,79.5,73.2,30.10,SSW,203,3.9,9.1,81,0.00,,OVC028,0.00,VWS V14.01,2013-08-08 16:13:00,
2013-08-08 12:28:00,79.3,73.7,30.10,WSW,240,5.2,9.1,83,0.00,,OVC028,0.00,VWS V14.01,2013-08-08 16:28:00,
2013-08-08 12:43:00,79.8,73.8,30.10,South,170,0.0,11.7,82,0.00,,OVC028,0.00,VWS V14.01,2013-08-08 16:43:00,
2013-08-08 12:58:00,79.3,72.2,30.10,West,265,5.2,5.2,79,0.00,,OVC028,0.00,VWS V14.01,2013-08-08 16:58:00,
2013-08-08 13:13:00,79.0,71.6,30.10,West,262,7.8,11.7,78,0.00,,OVC028,0.00,VWS V14.01,2013-08-08 17:13:00,
2013-08-08 13:28:00,79.8,73.1,30.10,SSW,201,6.5,13.0,80,0.00,,BKN055,0.00,VWS V14.01,2013-08-08 17:28:00,
2013-08-08 13:43:00,79.7,73.0,30.10,WSW,252,6.5,13.0,80,0.00,,BKN055,0.00,VWS V14.01,2013-08-08 17:43:00,
2013-08-08 13:58:00,79.2,73.2,30.09,WSW,247,2.6,11.7,82,0.00,,BKN055,0.00,VWS V14.01,2013-08-08 17:58:00,
2013-08-08 14:13:00,78.9,71.8,30.09,SW,227,3.9,10.4,79,0.00,,OVC085,0.00,VWS V14.01,2013-08-08 18:13:00,
2013-08-08 14:28:00,79.0,72.3,30.08,NNW,327,3.9,9.1,80,0.00,,OVC085,0.00,VWS V14.01,2013-08-08 18:28:00,
2013-08-08 14:43:00,79.4,73.8,30.08,SSW,196,1.3,6.5,83,0.00,,OVC085,0.00,VWS V14.01,2013-08-08 18:43:00,
2013-08-08 14:58:00,80.2,73.1,30.07,WSW,250,5.2,9.1,79,0.00,,OVC085,0.00,VWS V14.01,2013-08-08 18:58:00,
2013-08-08 15:13:00,80.5,73.0,30.07,SSW,197,3.9,10.4,78,0.00,,CLR,0.00,VWS V14.01,2013-08-08 19:13:00,
2013-08-08 15:28:00,80.3,73.6,30.06,WNW,286,3.9,9.1,80,0.00,,CLR,0.00,VWS V14.01,2013-08-08 19:28:00,
2013-08-08 15:43:00,80.2,73.8,30.06,WSW,238,3.9,6.5,81,0.00,,CLR,0.00,VWS V14.01,2013-08-08 19:43:00,
2013-08-08 15:58:00,80.3,74.3,30.06,WSW,238,5.2,10.4,82,0.00,,CLR,0.00,VWS V14.01,2013-08-08 19:58:00,
2013-08-08 16:13:00,80.6,74.6,30.06,NW,316,5.2,9.1,82,0.00,,CLR,0.00,VWS V14.01,2013-08-08 20:13:00,
2013-08-08 16:28:00,80.9,74.9,30.05,SW,235,7.8,10.4,82,0.00,,CLR,0.00,VWS V14.01,2013-08-08 20:28:00,
2013-08-08 16:43:00,80.6,74.6,30.05,South,178,1.3,7.8,82,0.00,,CLR,0.00,VWS V14.01,2013-08-08 20:43:00,
2013-08-08 16:58:00,82.1,75.3,30.04,SSW,210,6.5,6.5,80,0.00,,CLR,0.00,VWS V14.01,2013-08-08 20:58:00,
2013-08-08 17:13:00,82.1,74.9,30.04,SW,225,2.6,6.5,79,0.00,,CLR,0.00,VWS V14.01,2013-08-08 21:13:00,
2013-08-08 17:28:00,81.3,74.2,30.04,West,269,0.0,9.1,79,0.00,,CLR,0.00,VWS V14.01,2013-08-08 21:28:00,
2013-08-08 17:43:00,81.1,74.7,30.04,SW,232,3.9,3.9,81,0.00,,CLR,0.00,VWS V14.01,2013-08-08 21:43:00,
2013-08-08 17:58:00,81.3,74.9,30.04,WSW,257,1.3,9.1,81,0.00,,CLR,0.00,VWS V14.01,2013-08-08 21:58:00,
2013-08-08 18:13:00,80.9,74.9,30.04,WSW,255,0.0,2.6,82,0.00,,CLR,0.00,VWS V14.01,2013-08-08 22:13:00,
2013-08-08 18:28:00,81.6,75.9,30.04,SW,236,2.6,3.9,83,0.00,,CLR,0.00,VWS V14.01,2013-08-08 22:28:00,
2013-08-08 18:58:00,81.8,76.1,30.04,WSW,252,0.0,1.3,83,0.00,,CLR,0.00,VWS V14.01,2013-08-08 22:58:00,
2013-08-08 19:13:00,81.9,76.6,30.04,WSW,252,0.0,0.0,84,0.00,,CLR,0.00,VWS V14.01,2013-08-08 23:13:00,
2013-08-08 19:43:00,81.1,76.2,30.06,WSW,252,0.0,0.0,85,0.00,,CLR,0.00,VWS V14.01,2013-08-08 23:43:00,
2013-08-08 19:58:00,80.4,75.8,30.05,WSW,251,0.0,0.0,86,0.00,,CLR,0.00,VWS V14.01,2013-08-08 23:58:00,
2013-08-08 20:13:00,79.3,75.4,30.05,WSW,252,0.0,0.0,88,0.00,,SCT120,0.00,VWS V14.01,2013-08-09 00:13:00,
2013-08-08 20:28:00,78.7,75.2,30.05,WSW,252,0.0,0.0,89,0.00,,SCT120,0.00,VWS V14.01,2013-08-09 00:28:00,
2013-08-08 20:43:00,77.8,74.6,30.05,WSW,252,0.0,0.0,90,0.00,,SCT120,0.00,VWS V14.01,2013-08-09 00:43:00,
2013-08-08 21:13:00,76.4,73.6,30.06,WSW,251,0.0,0.0,91,0.00,,CLR,0.00,VWS V14.01,2013-08-09 01:13:00,
2013-08-08 21:28:00,75.9,73.4,30.07,WSW,252,0.0,0.0,92,0.00,,CLR,0.00,VWS V14.01,2013-08-09 01:28:00,
2013-08-08 21:43:00,75.7,73.2,30.07,WSW,252,0.0,0.0,92,0.00,,CLR,0.00,VWS V14.01,2013-08-09 01:43:00,
2013-08-08 22:13:00,76.2,73.4,30.07,WSW,252,0.0,1.3,91,0.00,,CLR,0.00,VWS V14.01,2013-08-09 02:13:00,
2013-08-08 22:28:00,77.3,73.8,30.07,WSW,252,0.0,2.6,89,0.00,,CLR,0.00,VWS V14.01,2013-08-09 02:28:00,
2013-08-08 22:43:00,77.3,74.1,30.06,WSW,252,0.0,0.0,90,0.00,,CLR,0.00,VWS V14.01,2013-08-09 02:43:00,
2013-08-08 22:58:00,77.2,74.0,30.06,WSW,251,0.0,0.0,90,0.00,,CLR,0.00,VWS V14.01,2013-08-09 02:58:00,
2013-08-08 23:13:00,76.8,74.0,30.05,WSW,251,0.0,0.0,91,0.00,,CLR,0.00,VWS V14.01,2013-08-09 03:13:00,
2013-08-08 23:43:00,76.4,73.9,30.04,WSW,251,0.0,1.3,92,0.00,,CLR,0.00,VWS V14.01,2013-08-09 03:43:00,